TimeHST,TemperatureF,Dew PointF,Humidity,Sea Level PressureIn,VisibilityMPH,Wind Direction,Wind SpeedMPH,Gust SpeedMPH,PrecipitationIn,Events,Conditions,WindDirDegrees,DateUTC
1:57 AM,71.6,63.0,74,30.15,10.0,East,17.3,27.6,0.00,,Mostly Cloudy,90,2013-02-19 11:57:00
2:57 AM,69.8,60.1,71,30.13,10.0,ENE,18.4,29.9,N/A,,Mostly Cloudy,60,2013-02-19 12:57:00
3:57 AM,-9999,-9999,N/A,30.13,10.0,ENE,16.1,24.2,N/A,,Partly Cloudy,60,2013-02-19 13:57:00
4:57 AM,69.8,57.9,66,30.12,10.0,ENE,13.8,25.3,N/A,,Mostly Cloudy,70,2013-02-19 14:57:00
5:57 AM,69.8,57.9,66,30.13,10.0,East,13.8,24.2,N/A,,Mostly Cloudy,90,2013-02-19 15:57:00
6:57 AM,71.6,55.9,58,30.14,10.0,East,12.7,21.9,N/A,,Partly Cloudy,80,2013-02-19 16:57:00
7:57 AM,71.2,55.0,56,30.16,10.0,ENE,11.5,18.4,N/A,,Mostly Cloudy,60,2013-02-19 17:57:00
8:57 AM,72.3,57.9,60,30.17,10.0,ENE,12.7,27.6,N/A,,Scattered Clouds,60,2013-02-19 18:57:00
9:57 AM,73.6,57.9,58,30.17,10.0,ENE,17.3,27.6,N/A,,Scattered Clouds,70,2013-02-19 19:57:00
10:57 AM,74.3,60.1,61,30.17,10.0,ENE,9.2,20.7,N/A,,Scattered Clouds,60,2013-02-19 20:57:00
11:57 AM,73.6,61.0,65,30.15,10.0,ENE,13.8,23.0,N/A,,Overcast,60,2013-02-19 21:57:00
12:57 PM,76.5,63.0,63,30.12,10.0,ENE,16.1,24.2,N/A,,Partly Cloudy,60,2013-02-19 22:57:00
2:30 PM,-9999,-9999,N/A,-9999,-9999.0,North,-9999.0,-,N/A,,Unknown,0,2013-02-20 00:30:00
2:57 PM,77.5,61.0,57,30.08,10.0,ENE,12.7,28.8,N/A,,Mostly Cloudy,70,2013-02-20 00:57:00
3:30 PM,-9999,-9999,N/A,-9999,-9999.0,North,-9999.0,-,N/A,,Unknown,0,2013-02-20 01:30:00
3:57 PM,77.0,61.0,58,30.07,10.0,NE,12.7,21.9,N/A,,Scattered Clouds,50,2013-02-20 01:57:00
4:20 PM,-9999,-9999,N/A,-9999,-9999.0,North,-9999.0,-,N/A,,Unknown,0,2013-02-20 02:20:00
4:57 PM,77.0,62.1,60,30.07,10.0,ENE,16.1,25.3,0.00,,Mostly Cloudy,60,2013-02-20 02:57:00
5:57 PM,73.0,61.0,66,30.08,10.0,ENE,13.8,25.3,N/A,,Scattered Clouds,60,2013-02-20 03:57:00
6:00 PM,-9999,-9999,N/A,-9999,-9999.0,North,-9999.0,-,N/A,,Unknown,0,2013-02-20 04:00:00
6:57 PM,72.0,60.1,66,30.09,10.0,ENE,13.8,24.2,N/A,,Mostly Cloudy,60,2013-02-20 04:57:00
7:57 PM,70.9,63.0,76,30.12,10.0,ENE,11.5,21.9,N/A,,Mostly Cloudy,70,2013-02-20 05:57:00
8:57 PM,70.5,61.0,72,30.12,10.0,ENE,15.0,24.2,0.01,,Scattered Clouds,70,2013-02-20 06:57:00
9:57 PM,70.3,63.0,77,30.13,10.0,ENE,12.7,23.0,0.00,,Scattered Clouds,60,2013-02-20 07:57:00
10:00 PM,-9999,-9999,N/A,-9999,-9999.0,North,-9999.0,-,N/A,,Unknown,0,2013-02-20 08:00:00
10:57 PM,70.0,63.0,78,30.13,10.0,East,11.5,21.9,0.00,,Overcast,80,2013-02-20 08:57:00
11:13 PM,69.8,62.6,78,30.14,6.2,East,13.8,19.6,0.05,Rain,Light Rain,80,2013-02-20 09:13:00
11:44 PM,69.8,62.6,78,30.14,10.0,ENE,12.7,21.9,0.05,,Mostly Cloudy,60,2013-02-20 09:44:00
11:57 PM,69.4,63.0,80,30.12,10.0,ENE,10.4,17.3,0.06,Rain,Light Rain,60,2013-02-20 09:57:00